Location: Unspecified
(14.5630°N, 0.0000°E)
Time: 04:30:43
(UTC+00:00)

Tiros 1 despin weight - Visible Passes

Search period start: 05 April 2026 00:00
Search period end: 15 April 2026 00:00
Orbit: 555 x 593 km, 48.2° (Epoch: 29 March)

Date Brightness Start Highest point End Pass type
(mag) Time Alt. Az. Time Alt. Az. Time Alt. Az.
5 Apr ? 03:55:54 18° N 03:57:52 24° NE 04:01:24 10° E visible
5 Apr ? 19:22:49 10° W 19:26:01 20° NW 19:29:14 10° N visible
6 Apr ? 03:59:38 42° NE 03:59:58 43° NE 04:04:06 10° ESE visible
6 Apr ? 19:26:41 10° WNW 19:28:12 12° NW 19:29:44 10° NNW visible
7 Apr ? 04:03:29 41° SE 04:03:29 41° SE 04:06:21 10° SE visible
8 Apr ? 04:07:16 16° SSE 04:07:16 16° SSE 04:08:12 10° SSE visible
